EHI
0 0 0 0 0 0 0 0 0 0 0 0 0 0 0 0 0 0 0 0 0 0 0 0 0 0 0 0 0 0 0 0 0 0 0 0 0 0 0 0 0 0 0 0
0 0 0 0 0 0 0 0 0 0 0 0 0 0 0 0 0 0 0 0 0 0 0 0 0 0 0 0 0 0 0 0 0 0 0 0 0 0 0 0 0 0 0 0
0 0 0 0 0 0 0 0 0 0 0 0 0 0 0 0 0 0 0 0 0 0 0 0 0 0 0 0 0 0 0 0 0 0 0 0 0 0 0 0 0 0 0 0
0 0 0 0 0 0 0 0 0 0 0 0 0 0 0 0 0 0 0 0 0 0 0 0 0 0 0 0 0 0 0 0 0 0 0 0 0 0 0 0 0 0 0 0
0 0 0 0 0 0 0 0 0 0 0 0 0 0 0 0 0 0 0 0 0 0 0 0 0 0 0 0 0 0 0 0 0 0 0 0 0 0 0 0 0 0 0 0
0 0 0 0 0 0 0 0 0 0 0 0 0 0 0 0 0 0 0 0 0 0 0 0 0 0 0 0 0 0 0 0 0 0 0 0 0 0 0 0 0 0 0 0
0 0 0 0 0 0 0 0 0 0 0 0 0 0 0 0 0 0 0 0 0 0 0 0 0 0 0 0 0 0 0 0 0 0 0 0 0 0 0 0 0 0 0 0
0 0 0 0 0 0 0 0 0 0 0 0 0 0 0 0 0 0 0 0 0 0 0 0 0 0 0 0 0 0 0 0 0 0 0 0 0 0 0 0 0 0 0 0
0 0 0 0 0 0 0 0 0 0 0 0 0 0 0 0 0 0 0 0 0 0 0 0 0 0 0 0 0 0 0 0 0 0 0 0 0 0 0 0 0 0 0 0
0 0 0 0 0 0 0 0 0 0 0 0 0 0 0 0 0 0 0 0 0 0 0 0 0 0 0 0 0 0 0 0 0 0 0 0 0 0 0 0 0 0 0 0
0 0 0 0 0 0 0 0 0 0 0 0 0 0 0 0 0 0 0 0 0 0 0 0 0 0 0 0 0 0 0 0 0 0 0 0 0 0 0 0 0 0 0 0
0 0 0 0 0 0 0 0 0 0 0 0 0 0 0 0 0 0 0 0 0 0 0 0 0 0 0 0 0 0 0 0 0 0 0 0 0 0 0 0 0 0 0 0
0 0 0 0 0 0 0 0 0 0 0 0 0 0 0 0 0 0 0 0 0 0 0 0 0 0 0 0 0 0 0 0 0 0 0 0 0 0 0 0 0 0 0 0
0 0 0 0 0 0 0 0 0 0 0 0 0 0 0 0 0 0 0 0 0 0 0 0 0 0 0 0 0 0 0 0 0 0 0 0 0 0 0 0 0 0 0 0
0 0 0 0 0 0 0 0 0 0 0 0 0 0 0 0 0 0 0 0 0 0 0 0 0 0 0 0 0 0 0 0 0 0 0 0 0 0 0 0 0 0 0 0
0 0 0 0 0 0 0 0 0 0 0 0 0 0 0 0 0 0 0 0 0 0 0 0 0 0 0 0 0 0 0 0 0 0 0 0 0 0 0 0 0 0 0 0
0 0 0 0 0 0 0 0 0 0 0 0 0 0 0 0 0 0 0 0 0 0 0 0 0 0 0 0 0 0 0 0 0 0 0 0 0 0 0 0 0 0 0 0
0 0 0 0 0 0 0 0 0 0 0 0 0 0 0 0 0 0 0 0 0 0 0 0 0 0 0 0 0 0 0 0 0 0 0 0 0 0 0 0 0 0 0 0
0 0 0 0 0 0 0 0 0 0 0 0 0 0 0 0 0 0 0 0 0 0 0 0 0 0 0 0 0 0 0 0 0 0 0 0 0 0 0 0 0 0 0 0
0 0 0 0 0 0 0 0 0 0 0 0 0 0 0 0 0 0 0 0 0 0 0 0 0 0 0 0 0 0 0 0 0 0 0 0 0 0 0 0 0 0 0 0
0 0 0 0 0 0 0 0 0 0 0 0 0 0 0 0 0 0 0 0 0 0 0 0 0 0 0 0 0 0 0 0 0 0 0 0 0 0 0 0 0 0 0 0
0 0 0 0 0 0 0 0 0 0 0 0 0 0 0 0 0 0 0 0 0 0 0 0 0 0 0 0 0 0 0 0 0 0 0 0 0 0 0 0 0 0 0 0
0 0 0 0 0 0 0 0 0 0 0 0 0 0 0 0 0 0 0 0 0 0 0 0 0 0 0 0 0 0 0 0 0 0 0 0 0 0 0 0 0 0 0 0
0 0 0 0 0 0 0 0 0 0 0 0 0 0 0 0 0 0 0 0 0 0 0 0 0 0 0 0 0 0 0 0 0 0 0 0 0 0 0 0 0 0 0 0
0 0 0 0 0 0 0 0 0 0 0 0 0 0 0 0 0 0 0 0 0 0 0 0 0 0 0 0 0 0 0 0 0 0 0 0 0 0 0 0 0 0 0 0
0 0 0 0 0 0 0 0 0 0 0 0 0 0 0 0 0 0 0 0 0 0 0 0 0 0 0 0 0 0 0 0 0 0 0 0 0 0 0 0 0 0 0 0
0 0 0 0 0 0 0 0 0 0 0 0 0 0 0 0 0 0 0 0 0 0 0 0 0 0 0 0 0 0 0 0 0 0 0 0 0 0 0 0 0 0 0 0
Wind_Speed
2 1 3 4 6 5 3 1 3 2 3 5 7 8 8 9 10 10 9 9 9 9 9 9 10 9 9 9 9 9 10 10 9 8 8 8 8 7 7 7 7 5 5 5
3 3 5 7 9 7 5 4 2 3 2 2 6 7 8 9 10 10 10 10 10 10 10 9 9 8 8 8 7 7 9 8 7 7 7 7 6 6 6 6 5 4 4 4
1 3 3 5 6 5 3 3 2 1 1 5 6 6 6 7 8 9 10 10 10 10 9 8 7 7 7 6 6 7 7 7 6 6 6 5 5 5 5 4 4 4 3 3
2 3 2 1 2 2 2 4 4 4 5 6 7 7 7 6 8 10 10 11 10 9 9 7 7 6 6 6 6 6 6 5 5 5 5 4 5 4 3 2 2 2 2 2
3 2 1 2 3 3 2 2 3 5 7 8 8 8 7 7 8 9 10 9 9 8 8 7 7 6 6 6 5 5 5 4 3 4 4 4 4 3 2 2 3 2 2 3
3 2 1 2 4 3 1 1 2 4 6 6 3 3 3 6 9 10 10 9 8 8 8 7 5 5 6 5 4 3 3 2 2 3 3 3 3 2 2 2 3 3 4 4
3 1 2 3 6 2 1 2 1 3 4 4 3 4 7 9 10 10 9 9 8 7 6 5 4 5 5 4 3 1 2 2 2 2 2 2 2 2 3 3 4 4 5 5
2 1 3 5 4 2 1 1 3 4 5 8 10 11 10 10 10 10 9 8 7 6 5 3 4 5 4 2 1 1 2 3 2 2 2 3 3 3 4 4 4 4 4 4
4 3 3 3 2 1 2 3 3 4 7 11 11 10 10 10 9 8 8 6 5 6 5 3 3 4 3 1 1 2 2 2 2 2 3 2 3 3 3 3 3 3 3 3
2 0 1 3 3 4 4 5 5 7 9 10 11 11 10 9 7 6 6 5 4 5 5 3 2 2 2 1 2 2 2 1 1 1 2 3 2 2 2 2 2 2 2 3
1 1 2 3 3 4 7 8 10 9 8 9 11 10 9 7 6 6 5 4 4 4 4 2 1 1 1 1 2 2 1 1 1 1 2 2 2 1 1 1 1 1 0 1
5 6 5 3 3 5 7 7 8 10 8 7 8 9 8 6 5 5 5 4 4 3 2 1 1 0 1 0 2 2 0 1 1 1 1 2 1 2 2 1 1 1 2 2
4 4 5 6 5 5 6 7 7 8 8 8 6 7 7 5 4 4 4 4 3 2 2 1 0 1 1 1 1 2 1 1 1 1 1 1 1 1 1 3 3 3 4 4
7 8 6 4 5 6 8 8 8 8 7 7 7 7 6 5 4 4 4 3 2 2 2 1 1 1 2 0 1 1 1 1 2 1 1 1 1 1 1 1 3 3 4 5
3 5 7 8 8 8 8 9 10 8 7 6 6 6 6 6 4 3 2 3 3 2 1 1 1 2 2 0 1 1 1 1 1 2 2 2 1 1 1 1 2 2 3 4
7 9 10 11 10 9 9 9 9 7 6 6 5 5 5 5 4 3 3 3 3 2 1 1 1 2 2 0 1 1 0 1 3 2 2 2 2 2 1 1 2 2 3 3
11 9 9 10 10 9 7 7 8 7 6 7 6 6 6 5 4 3 1 1 1 1 1 1 2 2 1 1 1 1 1 1 3 3 2 2 2 1 1 1 1 2 2 3
10 10 11 13 12 10 8 8 8 8 7 6 7 6 6 5 4 3 2 1 2 1 1 1 2 1 1 0 1 1 1 2 2 2 2 2 2 1 1 1 1 2 2 3
9 10 10 10 10 10 9 8 7 7 6 7 7 6 5 4 3 2 2 2 1 1 2 2 1 1 1 1 0 1 2 2 3 2 2 3 2 2 1 1 1 2 2 3
9 10 11 10 9 9 9 8 8 7 6 6 6 5 3 3 2 2 2 2 3 3 2 1 0 1 1 1 0 1 2 3 3 3 2 2 2 1 1 0 1 2 2 2
11 11 11 11 9 9 9 9 8 7 6 6 6 6 4 3 2 2 2 2 3 2 1 1 1 1 1 1 1 2 2 3 3 3 3 2 2 1 1 0 1 1 2 2
10 10 11 10 10 8 7 7 8 7 6 5 5 4 3 2 2 1 2 3 2 1 1 0 1 2 1 0 1 2 2 3 3 3 3 2 2 1 1 0 0 1 1 1
9 9 11 11 10 9 7 6 7 7 7 6 6 5 4 3 3 2 2 2 2 2 2 1 2 1 1 1 1 2 2 3 3 3 3 2 2 2 1 1 0 1 1 1
9 9 9 9 9 9 7 6 6 5 6 5 5 5 4 2 2 2 2 2 3 3 2 2 1 1 2 1 1 1 2 2 3 3 3 2 2 2 1 1 1 0 0 0
9 9 9 10 9 7 7 6 5 4 4 3 3 3 3 3 3 2 2 3 4 3 1 2 2 1 1 1 1 2 2 2 2 3 3 2 2 2 2 1 1 1 1 0
8 8 8 8 8 6 6 6 5 4 4 3 2 2 2 2 2 2 2 3 4 3 2 2 1 1 1 2 2 2 2 2 3 3 3 3 3 2 2 2 3 2 1 1
8 7 6 5 4 5 6 6 5 5 5 5 4 3 3 3 2 3 3 2 2 2 2 2 2 2 2 2 2 2 2 2 2 2 3 3 2 2 2 3 2 2 2 2
Wind_Direction
53 42 88 57 17 19 57 137 178 206 167 178 167 151 140 132 125 118 111 107 103 97 89 84 79 74 72 70 68 72 76 75 73 71 73 73 71 70 70 72 76 74 70 61
40 49 78 54 21 20 29 26 50 87 74 84 110 118 127 132 131 125 118 113 107 101 95 89 86 83 77 74 71 75 78 77 73 73 71 69 67 66 65 62 61 61 57 54
353 324 45 27 355 7 23 10 10 36 102 113 107 115 125 131 130 125 121 116 109 103 98 93 87 87 85 81 77 75 75 76 75 77 73 66 69 68 63 56 53 49 41 42
63 44 51 276 332 22 56 36 30 67 85 91 95 87 78 94 114 114 116 114 110 108 103 94 91 88 86 82 81 82 80 79 78 81 77 69 65 59 48 42 39 24 20 21
86 72 354 335 0 0 6 20 36 91 95 93 96 83 62 72 97 109 110 109 107 106 103 99 96 96 91 84 83 84 83 82 83 88 85 69 60 48 33 32 25 16 18 22
87 94 244 295 318 316 116 16 36 117 129 131 119 103 96 97 100 102 101 102 105 103 100 98 96 96 93 90 88 88 90 89 86 84 86 74 59 44 31 41 35 34 40 34
83 85 290 310 316 344 68 287 67 117 127 122 91 104 117 109 101 100 99 98 99 101 101 104 109 103 97 95 96 90 84 78 69 68 81 86 68 53 52 55 50 44 42 32
106 70 285 328 8 66 201 85 92 99 103 107 106 108 109 107 107 106 104 101 102 103 99 99 111 111 107 108 105 78 75 67 58 50 61 91 90 67 55 59 55 39 30 18
168 202 261 338 36 40 115 105 100 109 116 120 117 116 113 110 109 107 107 105 103 109 102 89 98 114 122 140 107 91 73 58 50 53 59 84 101 89 67 58 57 37 25 8
104 24 33 38 53 53 70 94 101 111 118 119 119 119 116 115 112 109 107 109 110 110 106 93 87 102 131 118 109 102 82 46 45 70 68 68 72 84 90 79 61 37 20 360
128 168 102 51 68 91 89 94 98 98 104 116 120 119 118 118 117 114 109 102 106 113 119 123 105 77 80 129 126 107 76 36 36 72 98 88 72 66 102 160 188 168 298 314
205 198 163 162 130 117 110 111 115 111 103 105 116 120 119 117 118 118 115 111 112 116 123 118 97 27 339 94 145 141 92 11 37 86 103 111 100 51 35 39 16 202 233 267
164 131 117 118 112 109 112 116 113 112 118 115 110 117 118 116 119 120 122 130 142 153 155 159 156 298 305 307 152 165 194 200 142 127 130 137 130 87 15 356 2 3 350 343
122 111 105 118 124 117 114 110 103 98 104 110 113 113 110 107 114 126 142 160 159 149 153 172 210 288 302 275 150 172 178 166 152 149 145 146 140 110 75 23 358 344 341 347
107 115 129 121 113 112 113 113 109 106 107 105 111 117 119 122 132 143 144 134 125 127 141 160 244 294 314 215 154 163 148 152 138 130 129 131 120 105 84 47 11 344 339 343
105 103 115 122 127 127 124 124 124 125 123 119 120 126 131 132 132 129 132 140 141 161 179 184 283 301 318 130 136 116 129 169 148 135 129 121 113 105 84 45 18 2 353 345
129 135 138 140 142 141 140 140 139 137 132 132 137 134 124 117 115 123 135 132 148 168 180 224 283 312 333 165 167 161 145 138 137 131 134 128 116 110 99 63 16 352 339 334
157 157 157 155 152 145 139 137 138 137 139 143 136 131 134 141 157 177 174 111 90 54 332 290 292 308 328 171 167 173 157 149 142 144 139 126 119 117 112 84 8 354 342 342
134 138 141 144 146 143 143 144 144 141 139 139 142 151 162 171 174 173 151 141 149 226 284 309 338 10 305 278 167 164 156 147 139 133 128 126 119 113 105 67 3 350 345 349
134 137 139 139 140 141 144 143 140 139 145 145 143 146 161 185 179 164 161 201 225 228 254 265 314 320 301 292 125 154 153 152 148 139 131 132 137 134 120 34 347 345 348 351
143 143 144 145 144 146 147 146 145 148 151 151 155 172 191 202 182 164 168 244 271 248 232 228 225 275 286 263 135 144 151 151 149 149 149 149 151 154 161 268 333 337 342 347
147 147 148 146 143 146 150 149 150 151 152 162 171 173 175 192 187 184 216 222 247 213 166 192 250 272 274 126 125 144 151 149 146 146 150 157 164 171 185 214 296 320 334 342
147 148 149 150 151 149 147 151 155 156 162 173 178 183 191 197 183 181 248 245 215 180 163 213 250 268 91 79 102 134 146 152 157 162 167 170 173 177 188 212 243 290 318 331
145 148 148 143 136 137 151 168 166 167 172 179 189 189 180 180 211 221 219 207 181 172 177 232 242 137 96 85 108 128 144 157 163 164 163 162 165 172 185 200 213 245 289 337
145 143 140 141 148 160 166 159 151 157 161 174 200 202 190 182 192 203 185 188 183 175 195 251 237 159 119 128 141 146 152 166 171 167 168 169 175 182 189 195 201 205 212 225
146 153 158 164 163 159 153 150 154 164 165 176 207 211 189 179 176 163 173 188 191 188 192 215 216 190 173 172 168 165 164 164 166 173 179 179 184 188 194 200 202 201 201 191
141 143 142 141 146 152 155 158 162 173 177 179 198 206 191 180 175 180 182 185 192 204 211 214 211 208 202 191 184 180 177 178 178 180 181 183 185 195 203 202 197 190 183 182